GW2952 Weather Reports


time (UTC)temp
C
wind
direction
speed
KPH
gust
KPH
rain 1hr
cm
rain 24hr
cm
rain mn
cm
humidity
%
barometer
mb
20260506231524 8 286 4.8 16.1 0.20 1.42 1.42 89 1008.5
20260506231003 8 283 4.8 16.1 0.20 1.42 1.42 88 1008.4
20260506230503 9 279 4.8 14.5 0.20 1.42 1.42 88 1008.5
20260506230003 9 291 4.8 11.3 0.20 1.42 1.42 88 1008.6
20260506225503 10 293 4.8 11.3 0.20 1.42 1.42 88 1008.1
20260506225003 10 293 4.8 12.9 0.20 1.42 1.42 88 1008.1
20260506224503 10 297 4.8 17.7 0.20 1.42 1.42 87 1007.9
20260506224003 11 290 4.8 17.7 0.20 1.42 1.42 87 1008.1
20260506223503 11 281 3.2 14.5 0.18 1.42 1.42 87 1008.2
20260506223024 12 290 4.8 16.1 0.15 1.37 1.37 87 1008.1
20260506222524 13 293 4.8 29.0 0.13 1.37 1.37 88 1007.8
20260506222003 13 271 4.8 29.0 0.05 1.30 1.30 88 1007.7
20260506221504 14 254 3.2 11.3 0.00 1.22 1.22 89 1007.3
20260506221003 14 240 3.2 14.5 0.00 1.22 1.22 89 1007.0
20260506220503 14 248 4.8 14.5 0.00 1.22 1.22 89 1007.0
20260506220003 14 244 3.2 14.5 0.00 1.22 1.22 89 1007.1
20260506215503 14 227 3.2 14.5 0.00 1.22 1.22 89 1007.0
20260506215003 14 205 3.2 14.5 0.00 1.22 1.22 89 1007.0
20260506214524 14 218 3.2 14.5 0.00 1.22 1.22 90 1007.0
20260506214003 14 244 3.2 16.1 0.00 1.22 1.22 90 1007.0
20260506213524 14 232 3.2 16.1 0.00 1.22 1.22 90 1006.8
20260506213003 14 237 3.2 11.3 0.00 1.22 1.22 90 1006.8
20260506212503 14 237 3.2 14.5 0.00 1.22 1.22 90 1006.7
20260506212003 14 242 4.8 16.1 0.00 1.22 1.22 90 1006.8
20260506211503 14 241 6.4 16.1 0.00 1.22 1.22 90 1006.8
20260506211003 14 217 6.4 16.1 0.00 1.22 1.22 90 1006.8
20260506210503 14 202 4.8 17.7 0.00 1.22 1.22 90 1006.9
20260506210024 14 198 4.8 17.7 0.00 1.22 1.22 90 1006.8
20260506205503 14 201 4.8 16.1 0.00 1.22 1.22 90 1006.5
20260506205003 13 223 4.8 20.9 0.00 1.22 1.22 90 1006.8
20260506204503 14 229 4.8 20.9 0.00 1.22 1.22 90 1006.6
20260506204003 13 225 3.2 14.5 0.00 1.22 1.22 90 1006.5
20260506203524 13 222 3.2 16.1 0.00 1.22 1.22 90 1006.5
20260506203003 13 239 3.2 16.1 0.00 1.22 1.22 90 1006.5
20260506202503 13 243 3.2 12.9 0.00 1.22 1.22 90 1006.6
20260506202003 13 237 3.2 17.7 0.00 1.22 1.22 90 1006.5
20260506201503 13 237 3.2 17.7 0.00 1.22 1.22 90 1006.6
20260506201003 13 227 4.8 16.1 0.00 1.22 1.22 90 1006.7
20260506200503 13 214 3.2 16.1 0.00 1.22 1.22 90 1006.9
20260506200024 13 216 4.8 16.1 0.00 1.22 1.22 90 1006.7
20260506195503 13 229 4.8 14.5 0.00 1.22 1.22 90 1006.7
20260506195024 13 220 4.8 14.5 0.03 1.22 1.22 90 1006.6
20260506194503 13 204 4.8 14.5 0.03 1.22 1.22 91 1006.9
20260506194003 13 202 3.2 12.9 0.03 1.22 1.22 91 1006.8
20260506193503 13 224 3.2 12.9 0.05 1.22 1.22 91 1006.9
20260506193024 13 226 3.2 17.7 0.05 1.22 1.22 91 1006.6
20260506192524 13 219 4.8 17.7 0.03 1.22 1.22 91 1006.9
20260506192003 13 212 3.2 14.5 0.05 1.22 1.22 91 1006.9
20260506191503 13 206 3.2 14.5 0.05 1.22 1.22 91 1006.8
20260506191003 13 213 4.8 12.9 0.05 1.22 1.22 91 1007.3
20260506190524 13 207 4.8 12.9 0.05 1.22 1.22 91 1007.2
20260506190003 13 202 4.8 12.9 0.08 1.22 1.22 91 1007.3
20260506185503 13 206 3.2 12.9 0.08 1.22 1.22 91 1007.1
20260506185003 13 194 3.2 17.7 0.08 1.22 1.22 91 1007.2
20260506184503 13 198 4.8 17.7 0.10 1.22 1.22 91 1007.2
20260506184003 13 200 4.8 14.5 0.13 1.19 1.19 91 1007.3
20260506183503 13 208 4.8 14.5 0.15 1.19 1.19 91 1007.3
20260506183024 13 211 4.8 16.1 0.20 1.19 1.19 91 1007.3
20260506182503 13 199 4.8 16.1 0.23 1.19 1.19 91 1007.4
20260506182003 13 210 3.2 12.9 0.23 1.17 1.17 91 1007.3
20260506181503 13 209 3.2 11.3 0.25 1.17 1.17 91 1007.4
20260506181003 13 180 3.2 14.5 0.28 1.17 1.17 91 1007.4
20260506180503 13 177 4.8 20.9 0.25 1.17 1.17 91 1007.6
20260506180004 13 180 4.8 20.9 0.25 1.14 1.14 91 1007.6
20260506175503 13 174 4.8 14.5 0.23 1.14 1.14 91 1007.5
20260506175003 13 168 4.8 14.5 0.23 1.12 1.12 91 1007.5
20260506174524 13 180 4.8 14.5 0.23 1.12 1.12 91 1007.5
20260506174003 13 180 6.4 17.7 0.18 1.07 1.07 91 1007.5
20260506173503 13 182 6.4 22.5 0.15 1.04 1.04 91 1007.6
20260506173003 13 186 6.4 22.5 0.15 0.99 0.99 90 1007.6
20260506172503 13 201 6.4 17.7 0.15 0.97 0.97 90 1007.5
20260506172024 13 189 6.4 17.7 0.15 0.94 0.94 90 1007.8
20260506171503 13 165 4.8 14.5 0.15 0.94 0.94 90 1007.7
20260506171003 13 172 6.4 16.1 0.13 0.89 0.89 90 1007.7
20260506170503 13 187 4.8 17.7 0.15 0.89 0.89 90 1007.9
20260506170003 13 196 4.8 20.9 0.15 0.89 0.89 90 1007.5
20260506165503 13 181 6.4 20.9 0.15 0.89 0.89 90 1007.5
20260506165003 13 176 8.0 20.9 0.18 0.89 0.89 90 1007.5
20260506164524 13 173 6.4 20.9 0.20 0.89 0.89 90 1007.6
20260506164024 13 189 4.8 27.4 0.25 0.89 0.89 90 1007.6
20260506163503 13 198 4.8 16.1 0.30 0.89 0.89 90 1007.5
20260506163003 13 197 6.4 16.1 0.30 0.84 0.84 90 1007.6
20260506162503 13 185 4.8 16.1 0.30 0.81 0.81 90 1007.8
20260506162003 13 162 4.8 24.1 0.30 0.79 0.79 90 1007.8
20260506161503 13 162 4.8 24.1 0.30 0.79 0.79 90 1007.9
20260506161003 13 165 4.8 17.7 0.30 0.76 0.76 90 1007.8
20260506160503 13 162 4.8 17.7 0.30 0.76 0.76 90 1007.7
20260506160003 13 159 4.8 17.7 0.30 0.76 0.76 90 1007.7
20260506155524 13 153 4.8 14.5 0.30 0.74 0.74 90 1007.9
20260506155003 13 161 4.8 14.5 0.28 0.71 0.71 90 1007.9
20260506154503 13 175 6.4 22.5 0.28 0.69 0.69 90 1007.8
20260506154003 13 168 6.4 22.5 0.25 0.64 0.64 90 1008.3
20260506153503 13 167 4.8 14.5 0.20 0.58 0.58 89 1008.2
20260506153003 13 163 4.8 14.5 0.18 0.53 0.53 89 1008.5
20260506152524 13 155 4.8 14.5 0.18 0.51 0.51 90 1008.4
20260506152024 13 170 3.2 11.3 0.18 0.48 0.48 89 1008.3
20260506151503 13 171 4.8 17.7 0.18 0.48 0.48 89 1008.0
20260506151003 13 165 6.4 17.7 0.18 0.48 0.48 89 1008.4
20260506150504 13 156 4.8 16.1 0.18 0.46 0.46 89 1008.3
20260506150003 13 153 4.8 14.5 0.18 0.46 0.46 89 1007.9
20260506145503 13 162 4.8 20.9 0.20 0.43 0.43 89 1008.0
20260506145003 13 167 3.2 20.9 0.20 0.43 0.43 89 1008.0
20260506144503 13 158 3.2 12.9 0.20 0.41 0.41 89 1008.2
20260506144003 13 172 4.8 16.1 0.18 0.38 0.38 89 1008.3
20260506143503 13 164 3.2 16.1 0.20 0.38 0.38 89 1008.3
20260506143003 13 142 3.2 11.3 0.20 0.36 0.36 89 1008.1
20260506142503 13 169 4.8 14.5 0.23 0.33 0.33 89 1008.3
20260506142003 13 174 4.8 14.5 0.23 0.33 0.33 88 1008.4
20260506141503 13 183 4.8 17.7 0.23 0.30 0.30 88 1008.7
20260506141003 13 200 4.8 17.7 0.23 0.28 0.28 88 1008.8
20260506140503 13 199 4.8 17.7 0.23 0.28 0.28 88 1008.8
20260506140003 13 181 4.8 17.7 0.23 0.25 0.25 88 1008.7
20260506135503 13 183 4.8 16.1 0.20 0.23 0.23 88 1008.6
20260506135003 13 185 4.8 16.1 0.18 0.20 0.20 88 1008.8
20260506134503 13 153 4.8 14.5 0.18 0.20 0.20 87 1008.9
20260506134003 13 171 4.8 14.5 0.18 0.18 0.18 88 1009.1
20260506133503 13 188 3.2 12.9 0.15 0.18 0.18 87 1008.9
20260506133003 13 195 3.2 11.3 0.13 0.15 0.15 87 1009.3
20260506132524 13 193 3.2 11.3 0.10 0.13 0.13 87 1008.9
20260506132003 13 201 3.2 17.7 0.08 0.10 0.10 87 1009.0
20260506131503 13 183 4.8 20.9 0.08 0.08 0.08 86 1009.1
20260506131003 13 173 4.8 20.9 0.05 0.05 0.05 86 1009.0
20260506130503 13 188 4.8 12.9 0.03 0.05 0.05 86 1008.9
20260506130003 13 186 4.8 14.5 0.03 0.03 0.03 86 1009.1
20260506125503 13 188 4.8 14.5 0.03 0.03 0.03 85 1009.1
20260506125003 13 199 4.8 14.5 0.03 0.03 0.03 85 1009.0
20260506124503 13 209 4.8 14.5 0.00 0.00 0.00 84 1008.8
20260506124003 13 191 3.2 14.5 0.00 0.00 0.00 84 1008.8
20260506123503 13 193 4.8 16.1 0.00 0.00 0.00 84 1008.7
20260506123003 13 195 4.8 16.1 0.00 0.00 0.00 84 1008.9
20260506122503 13 171 3.2 12.9 0.00 0.00 0.00 83 1008.6
20260506122024 13 164 4.8 12.9 0.00 0.00 0.00 83 1008.6
20260506121524 13 166 4.8 14.5 0.00 0.00 0.00 83 1008.6
20260506121024 13 165 3.2 14.5 0.00 0.00 0.00 84 1008.7
20260506120503 13 154 3.2 11.3 0.00 0.00 0.00 83 1008.7
20260506120003 13 138 3.2 9.7 0.00 0.00 0.00 82 1008.6
20260506115503 13 164 4.8 11.3 0.00 0.00 0.00 83 1008.8
20260506115003 14 178 4.8 16.1 0.00 0.00 0.00 81 1008.8
20260506114503 14 163 4.8 16.1 0.00 0.00 0.00 81 1008.9
20260506114003 14 181 4.8 20.9 0.00 0.00 0.00 80 1009.0
20260506113503 14 190 4.8 20.9 0.00 0.00 0.00 79 1008.9
20260506113003 15 169 4.8 20.9 0.00 0.00 0.00 78 1008.8
20260506112503 15 169 4.8 16.1 0.00 0.00 0.00 78 1008.8
20260506112003 15 188 4.8 25.7 0.00 0.00 0.00 77 1008.9
20260506111503 15 175 4.8 25.7 0.00 0.00 0.00 77 1008.8
20260506111003 15 163 6.4 14.5 0.00 0.00 0.00 77 1008.8
20260506110503 15 178 6.4 22.5 0.00 0.00 0.00 77 1008.8
20260506110003 15 165 6.4 22.5 0.00 0.00 0.00 76 1008.6
20260506105524 15 157 4.8 17.7 0.00 0.00 0.00 76 1008.5
20260506105024 15 156 3.2 14.5 0.00 0.00 0.00 76 1008.4
20260506104503 15 140 4.8 16.1 0.00 0.00 0.00 76 1008.5
20260506104003 15 155 4.8 16.1 0.00 0.00 0.00 76 1008.5
20260506103503 15 158 3.2 14.5 0.00 0.00 0.00 75 1008.5
20260506103003 15 161 3.2 14.5 0.00 0.00 0.00 75 1008.5
20260506102503 15 164 3.2 12.9 0.00 0.00 0.00 74 1008.5
20260506102003 15 148 4.8 16.1 0.00 0.00 0.00 74 1008.3
20260506101524 15 135 4.8 16.1 0.00 0.00 0.00 74 1008.4
20260506101003 15 131 4.8 14.5 0.00 0.00 0.00 73 1008.4
20260506100503 15 143 3.2 14.5 0.00 0.00 0.00 72 1008.5
20260506100004 15 156 3.2 11.3 0.00 0.00 0.00 72 1008.6
20260506095503 15 164 3.2 17.7 0.00 0.00 0.00 71 1008.5
20260506095024 15 156 3.2 17.7 0.00 0.00 0.00 72 1008.5
20260506094524 15 132 1.6 11.3 0.00 0.00 0.00 70 1008.4
20260506094003 15 151 1.6 11.3 0.00 0.00 0.00 70 1008.4
20260506093503 15 151 1.6 11.3 0.00 0.00 0.00 69 1008.6
20260506093003 15 135 1.6 6.4 0.00 0.00 0.00 69 1008.5
20260506092524 15 126 1.6 6.4 0.00 0.00 0.00 69 1008.6
20260506092003 15 169 1.6 11.3 0.00 0.00 0.00 67 1008.6
20260506091503 15 177 3.2 11.3 0.00 0.00 0.00 68 1008.6
20260506091003 15 169 1.6 11.3 0.00 0.00 0.00 67 1008.6
20260506090524 15 149 1.6 9.7 0.00 0.00 0.00 67 1008.7
20260506090024 15 156 3.2 16.1 0.00 0.00 0.00 67 1008.6
20260506085524 15 171 3.2 16.1 0.00 0.00 0.00 66 1008.7
20260506085003 15 167 3.2 16.1 0.00 0.00 0.00 66 1009.0
20260506084503 15 170 3.2 11.3 0.00 0.00 0.00 66 1009.0
20260506084003 15 169 3.2 9.7 0.00 0.00 0.00 66 1008.8
20260506083503 15 163 3.2 9.7 0.00 0.00 0.00 66 1008.9
20260506083003 16 157 3.2 11.3 0.00 0.00 0.00 66 1008.8
20260506082503 16 173 4.8 14.5 0.00 0.00 0.00 65 1008.7
20260506082003 16 183 4.8 17.7 0.00 0.00 0.00 66 1008.8
20260506081503 16 201 4.8 17.7 0.00 0.00 0.00 65 1008.9
20260506081003 16 195 6.4 22.5 0.00 0.00 0.00 64 1008.9
20260506080503 16 177 6.4 22.5 0.00 0.00 0.00 65 1008.9
20260506073503 16 175 6.4 22.5 0.00 0.00 0.00 63 1009.0
20260506073003 16 171 8.0 22.5 0.00 0.00 0.00 63 1009.3
20260506072524 16 176 6.4 22.5 0.00 0.00 0.00 63 1009.1
20260506072003 16 182 6.4 17.7 0.00 0.00 0.00 62 1009.2
20260506071503 16 186 6.4 17.7 0.00 0.00 0.00 62 1009.0
20260506071003 16 202 6.4 22.5 0.00 0.00 0.00 62 1009.3
20260506070503 16 191 4.8 22.5 0.00 0.00 0.00 62 1009.1
20260506062503 16 180 3.2 12.9 0.00 0.00 0.00 60 1009.5
20260506062003 16 197 3.2 11.3 0.00 0.00 0.00 60 1009.6
20260506061503 16 178 3.2 12.9 0.00 0.00 0.00 60 1009.7
20260506061003 16 183 4.8 12.9 0.00 0.00 0.00 60 1009.6
20260506060503 16 186 3.2 12.9 0.00 0.00 0.00 60 1009.7
20260506051003 16 146 3.2 12.9 0.00 0.00 0.00 58 1009.9
20260506050503 16 144 4.8 12.9 0.00 0.00 0.00 57 1009.8
20260506045004 16 158 4.8 16.1 0.00 0.00 0.00 57 1009.9
20260506044503 16 158 4.8 16.1 0.00 0.00 0.00 56 1010.1
20260506044024 16 170 3.2 12.9 0.00 0.00 0.00 57 1009.9
20260506043503 16 150 3.2 9.7 0.00 0.00 0.00 56 1010.0
20260506043003 17 156 3.2 14.5 0.00 0.00 0.00 56 1010.1
20260506042503 17 162 3.2 14.5 0.00 0.00 0.00 55 1010.2
20260506042003 17 151 3.2 12.9 0.00 0.00 0.00 55 1009.9
20260506041503 17 155 3.2 16.1 0.00 0.00 0.00 55 1009.9
20260506041024 17 160 4.8 16.1 0.00 0.00 0.00 55 1010.1
20260506040503 17 164 4.8 11.3 0.00 0.00 0.00 55 1010.1
20260506040003 17 172 4.8 11.3 0.00 0.00 0.00 55 1010.2
20260506035524 17 162 3.2 9.7 0.00 0.00 0.00 55 1010.2
20260506035003 17 159 3.2 9.7 0.00 0.00 0.00 55 1010.1
20260506034503 17 162 3.2 9.7 0.00 0.00 0.00 54 1010.2
20260506034003 17 150 3.2 9.7 0.00 0.00 0.00 54 1010.2
20260506033503 17 156 3.2 12.9 0.00 0.00 0.00 53 1010.0
20260506033003 17 166 4.8 12.9 0.00 0.00 0.00 53 1010.0
20260506032503 17 167 6.4 22.5 0.00 0.00 0.00 52 1010.1
20260506032003 17 164 4.8 22.5 0.00 0.00 0.00 52 1010.0
20260506031524 17 150 4.8 12.9 0.00 0.00 0.00 52 1010.1
20260506031003 17 152 3.2 12.9 0.00 0.00 0.00 52 1010.1
20260506030524 17 162 3.2 16.1 0.00 0.00 0.00 52 1010.2
20260506030024 17 170 4.8 16.1 0.00 0.00 0.00 52 1010.0
20260506025524 18 170 3.2 14.5 0.00 0.00 0.00 51 1010.1
20260506025003 18 139 3.2 16.1 0.00 0.00 0.00 51 1010.1
20260506024503 18 133 4.8 16.1 0.00 0.00 0.00 51 1010.1
20260506024024 18 138 4.8 14.5 0.00 0.00 0.00 51 1010.2
20260506023524 18 146 4.8 14.5 0.00 0.00 0.00 51 1010.1
20260506023024 18 153 4.8 14.5 0.00 0.00 0.00 51 1010.2
20260506022524 18 180 4.8 16.1 0.00 0.00 0.00 50 1010.2
20260506022003 18 173 6.4 20.9 0.00 0.00 0.00 49 1010.2
20260506021503 18 160 4.8 20.9 0.00 0.00 0.00 49 1010.2
20260506021003 18 157 4.8 14.5 0.00 0.00 0.00 49 1010.1
20260506020503 18 163 3.2 20.9 0.00 0.00 0.00 49 1010.1
20260506020003 19 156 3.2 20.9 0.00 0.00 0.00 48 1010.2
20260506015503 19 156 4.8 22.5 0.00 0.00 0.00 48 1010.2
20260506015003 19 182 4.8 22.5 0.00 0.00 0.00 48 1010.1
20260506014524 19 191 3.2 17.7 0.00 0.00 0.00 47 1009.9
20260506014003 19 165 3.2 16.1 0.00 0.00 0.00 47 1009.9
20260506013503 19 168 4.8 16.1 0.00 0.00 0.00 47 1009.9
20260506013003 20 171 4.8 12.9 0.00 0.00 0.00 46 1010.0
20260506012503 20 171 6.4 12.9 0.00 0.00 0.00 47 1009.7
20260506012003 20 169 4.8 14.5 0.00 0.00 0.00 46 1009.7
20260506011503 20 168 4.8 17.7 0.00 0.00 0.00 46 1009.8
20260506011003 20 173 4.8 17.7 0.00 0.00 0.00 45 1009.9
20260506010524 20 162 4.8 17.7 0.00 0.00 0.00 45 1009.6
20260506010003 20 164 6.4 22.5 0.00 0.00 0.00 44 1009.5
20260506005503 20 185 8.0 22.5 0.00 0.00 0.00 44 1009.4
20260506005024 20 205 6.4 20.9 0.00 0.00 0.00 44 1009.3
20260506004503 20 195 6.4 24.1 0.00 0.00 0.00 44 1009.3
20260506004003 20 175 6.4 24.1 0.00 0.00 0.00 44 1009.5
20260506003503 20 155 4.8 17.7 0.00 0.00 0.00 44 1009.3
20260506003003 20 152 3.2 17.7 0.00 0.00 0.00 44 1009.5
20260506002503 20 170 3.2 16.1 0.00 0.00 0.00 44 1009.2
20260506002024 20 173 4.8 17.7 0.00 0.00 0.00 44 1009.3
20260506001503 20 166 4.8 22.5 0.00 0.00 0.00 44 1009.0
20260506001003 20 165 4.8 22.5 0.00 0.00 0.00 44 1009.2
20260506000503 20 167 4.8 17.7 0.00 0.00 0.00 44 1009.3
20260506000003 20 166 3.2 14.5 0.00 0.00 0.00 44 1009.2
20260505235503 20 196 3.2 24.1 0.00 0.00 0.00 44 1009.2
20260505235003 21 194 4.8 24.1 0.00 0.00 0.00 44 1009.2
20260505234503 21 183 4.8 17.7 0.00 0.00 0.00 44 1009.3
20260505234003 21 180 6.4 20.9 0.00 0.00 0.00 44 1009.0
20260505233503 21 179 6.4 24.1 0.00 0.00 0.00 44 1009.1
20260505233003 21 179 4.8 27.4 0.00 0.00 0.00 44 1008.9
20260505232524 21 178 3.2 27.4 0.00 0.00 0.00 44 1009.2
20260505232024 21 166 3.2 12.9 0.00 0.00 0.00 43 1009.1